Campo, CA

10:41 PM PDT on October 17, 2017 (GMT -0700)
Campo

Weather History for KCZZ - February, 2013

Change the Weather History Date:

Wednesday, February 13, 2013

  Actual Average Record
Temperature  
Mean Temperature 44 °F 49 °F  
Max Temperature 64 °F 64 °F 85 °F (1971)
Min Temperature 24 °F 35 °F 19 °F (1964)
Degree Days  
Heating Degree Days 21 16  
Month to date heating degree days 256 208  
Since 1 July heating degree days 1837 1824  
Cooling Degree Days 0 0  
Month to date cooling degree days 0 0  
Year to date cooling degree days 0 0  
Moisture  
Dew Point 22 °F    
Average Humidity 44    
Maximum Humidity 68    
Minimum Humidity 19    
Precipitation  
Precipitation 0.00 in 0.12 in 1.95 in (1992)
Month to date precipitation 0.34 1.38  
Year to date precipitation 2.37 4.36  
Since 1 July precipitation 6.84  
Snow  
Snow 0.00 in - - ()
Month to date snowfall 0.0  
Year to date snowfall 0.0  
Snow Depth 0.00 in    
Sea Level Pressure  
Sea Level Pressure 30.14 in    
Wind  
Wind Speed 8 mph (NE)    
Max Wind Speed 20 mph    
Max Gust Speed 26 mph    
T = Trace of Precipitation, MM = Missing Value Source: NWS Daily Summary

Daily Weather History Graph

Daily Weather History Graph

Search for Another Location

Airport or City:

Trip Planner

Search our weather history database for the weather conditions in past years. The results will help you decide how hot, cold, wet, or windy it might be!

Date:

Astronomy

Feb. 13, 2013 Rise Set
Actual Time 6:30 AM PST 5:30 PM PST
Civil Twilight 6:05 AM PST 5:55 PM PST
Nautical Twilight 5:36 AM PST 6:24 PM PST
Astronomical Twilight 5:07 AM PST 6:52 PM PST
Moon 8:17 AM PST (2/13) 9:19 PM PST (2/13)
Length of Visible Light 11h 50m
Length of Day
10h 59m
Waxing Crescent, 14% of the Moon is Illuminated
Feb 13
Waxing Crescent
Feb 17
First Quarter
Feb 25
Full
Mar 4
Last Quarter
Mar 11
New

Hourly Weather History & Observations

Time (PST) Temp. Windchill Dew Point Humidity Pressure Visibility Wind Dir Wind Speed Gust Speed Precip Events Conditions
12:52 AM 27.0 °F 23.0 °F 17.1 °F 66% 30.18 in - NE 3.5 mph - N/A   Unknown
1:52 AM 30.9 °F 26.2 °F 16.0 °F 54% 30.16 in - ENE 4.6 mph - N/A   Unknown
2:52 AM 30.9 °F 27.5 °F 16.0 °F 54% 30.16 in - NNE 3.5 mph - N/A   Unknown
3:52 AM 26.1 °F - 16.0 °F 66% 30.16 in - Calm Calm - N/A   Unknown
4:52 AM 26.1 °F 21.9 °F 16.0 °F 66% 30.17 in - NE 3.5 mph - N/A   Unknown
5:52 AM 26.1 °F 21.9 °F 17.1 °F 69% 30.18 in - NE 3.5 mph - N/A   Unknown
6:52 AM 28.9 °F 25.2 °F 16.0 °F 58% 30.20 in - ENE 3.5 mph - N/A   Unknown
7:52 AM 37.9 °F 35.5 °F 21.9 °F 53% 30.20 in - North 3.5 mph - N/A   Unknown
8:52 AM 55.9 °F - 18.0 °F 23% 30.17 in - NNE 17.3 mph 26.5 mph N/A   Unknown
9:52 AM 59.0 °F - 17.1 °F 20% 30.17 in - ENE 18.4 mph 23.0 mph N/A   Unknown
10:52 AM 60.1 °F - 17.1 °F 19% 30.15 in - East 18.4 mph - N/A   Unknown
11:52 AM 63.0 °F - 19.0 °F 18% 30.13 in - SE 3.5 mph - N/A   Unknown
12:52 PM 63.0 °F - 23.0 °F 22% 30.10 in - SSW 10.4 mph - N/A   Unknown
1:52 PM 63.0 °F - 24.1 °F 23% 30.08 in - WNW 11.5 mph - N/A   Unknown
2:52 PM 63.0 °F - 25.0 °F 24% 30.07 in - WNW 12.7 mph - N/A   Unknown
3:52 PM 61.0 °F - 28.0 °F 29% 30.07 in - WNW 11.5 mph - N/A   Unknown
4:52 PM 57.9 °F - 30.9 °F 36% 30.09 in - West 5.8 mph - N/A   Unknown
5:52 PM 53.1 °F - 34.0 °F 48% 30.10 in - Calm Calm - N/A   Unknown
6:52 PM 43.0 °F 40.3 °F 30.0 °F 60% 30.13 in - NE 4.6 mph - N/A   Unknown
7:52 PM 39.0 °F 34.8 °F 28.9 °F 67% 30.13 in - NE 5.8 mph - N/A   Unknown
8:52 PM 37.9 °F 33.5 °F 27.0 °F 65% 30.11 in - ENE 5.8 mph - N/A   Unknown
9:52 PM 36.0 °F 32.1 °F 26.1 °F 67% 30.11 in - NE 4.6 mph - N/A   Unknown
10:52 PM 34.0 °F 28.8 °F 25.0 °F 70% 30.12 in - ENE 5.8 mph - N/A   Unknown
11:52 PM 33.1 °F 30.0 °F 24.1 °F 70% 30.11 in - NE 3.5 mph - N/A   Unknown